Lapse_Rate
3.6 2.6 2.8 2.1 3.8 5.2 4.3 3.5 2.5 2.9 3.3 4.3 4.2 4.4 4.5 3.7 3.6 4.2 4.3 5.5 5.6 6.0 4.6 5.0 4.6 4.8 3.8 6.5 6.0 4.6 5.5 5.7
3.5 2.0 2.3 1.8 3.7 5.4 5.0 4.4 4.7 4.1 4.0 4.9 4.7 4.5 4.3 3.9 4.1 4.3 4.7 5.4 6.0 6.0 5.2 4.5 4.4 4.3 4.2 5.5 4.7 5.2 4.8 4.8
3.4 1.6 2.3 1.8 3.4 5.9 5.9 4.9 5.1 5.4 5.4 5.0 5.2 4.4 4.3 4.7 4.9 4.5 5.2 6.1 5.8 5.7 5.4 5.4 4.1 4.2 4.3 4.0 4.6 4.2 4.4 4.1
3.6 2.4 1.9 1.3 3.1 5.6 5.5 5.1 5.1 5.6 5.7 5.8 5.1 5.7 4.7 4.7 5.2 5.1 6.0 6.4 6.3 7.0 6.6 5.4 4.7 5.3 5.0 4.4 4.2 4.8 4.6 4.2
3.7 3.1 1.8 1.3 2.6 6.1 5.6 5.3 5.5 6.0 5.0 5.8 5.5 5.6 5.2 5.4 5.1 5.5 6.2 6.1 5.9 6.5 5.4 5.3 5.6 5.9 5.7 4.1 3.9 4.4 3.9 3.7
3.4 2.8 1.2 1.5 2.9 5.6 4.9 5.9 5.5 6.0 5.7 5.5 5.7 5.5 5.7 6.0 6.1 6.1 5.9 5.6 6.3 6.7 5.7 4.7 3.7 3.5 3.5 3.7 3.7 4.0 3.8 3.4
3.7 3.1 2.9 2.3 3.1 6.4 6.2 5.4 5.6 6.1 6.1 5.7 5.5 5.6 5.8 5.6 6.1 6.1 5.7 6.2 5.6 5.9 5.2 4.4 4.0 3.2 3.5 3.9 3.5 3.8 3.5 3.5
4.4 3.9 3.7 2.9 3.4 5.1 6.1 5.9 5.3 6.0 6.1 6.1 5.9 5.4 5.3 5.8 6.0 6.2 6.1 5.7 4.8 4.8 4.4 4.6 4.0 4.3 3.7 3.8 3.9 4.1 3.5 3.4
4.3 4.3 3.5 2.2 2.8 3.9 6.6 6.2 6.6 6.5 6.6 6.5 6.8 6.6 5.5 5.7 5.4 5.3 6.0 5.8 5.6 5.6 5.4 5.1 4.2 3.5 4.9 3.5 3.2 3.6 3.1 3.0
4.5 4.6 3.8 1.9 2.0 2.8 3.1 5.4 7.1 6.5 6.5 6.4 6.5 6.5 6.5 6.2 5.8 5.7 5.6 5.6 5.6 4.9 4.6 4.6 4.9 4.7 4.5 4.2 4.3 4.0 4.4 3.8
4.7 4.7 4.1 2.8 1.9 2.1 3.0 3.3 4.3 6.0 6.4 6.6 6.7 6.6 7.0 6.9 6.1 5.4 5.9 6.0 5.6 5.3 5.3 5.7 5.6 5.0 5.1 4.8 4.3 4.0 4.3 4.3
4.7 4.9 4.7 3.5 2.7 2.4 2.6 3.4 4.2 4.4 5.1 6.3 6.8 6.9 6.8 7.1 6.9 5.9 6.0 6.1 5.8 5.2 5.0 5.3 5.4 5.2 5.2 5.1 5.5 4.6 4.4 4.8
4.6 4.7 4.8 4.2 3.7 3.3 3.2 3.7 4.0 4.5 4.1 4.5 5.3 6.9 7.1 6.9 6.7 6.8 6.1 6.0 6.4 5.8 5.4 5.3 4.9 4.8 4.7 4.9 5.2 5.7 4.9 5.0
3.6 4.2 5.0 4.6 4.5 3.9 3.8 4.0 4.6 4.6 4.8 4.1 4.0 4.4 6.0 7.0 7.0 6.9 6.8 6.7 6.2 6.3 6.3 5.4 5.3 5.2 5.2 4.8 4.8 4.9 5.2 4.7
4.7 3.9 4.7 4.5 4.4 3.8 3.9 3.7 4.0 4.6 4.4 4.6 3.8 3.6 3.8 5.1 7.1 6.7 6.9 6.6 6.6 6.3 6.2 5.8 5.2 5.1 5.5 5.5 5.2 4.8 4.9 5.0
6.6 6.3 5.7 5.7 4.8 4.8 4.2 3.4 3.5 4.2 5.0 4.5 4.2 3.9 4.0 4.1 4.6 5.7 6.3 6.6 6.7 6.5 6.4 6.4 6.2 6.2 6.0 5.5 5.5 5.2 4.9 4.7
6.9 7.1 5.8 4.6 4.5 3.9 4.5 5.5 4.4 4.1 4.6 4.9 4.9 4.5 4.3 4.2 4.4 4.8 4.9 5.5 6.4 6.9 6.8 6.6 6.4 6.5 3.9 1.3 4.2 6.2 6.2 5.6
6.6 5.7 5.4 4.3 3.6 4.1 3.8 4.6 4.4 4.4 4.8 4.8 4.8 4.5 4.5 4.5 4.6 5.0 4.9 5.2 5.7 5.7 6.4 6.9 6.9 6.7 2.2 1.1 0.4 6.1 6.4 6.1
5.5 4.0 2.4 2.1 1.8 2.5 2.9 1.5 1.5 1.2 2.8 4.3 5.1 4.8 5.2 4.8 4.9 5.0 5.1 5.4 5.2 5.6 5.7 6.2 6.5 6.5 1.9 0.7 -0.4 3.9 6.1 6.3
Wind_Speed
15 15 13 12 13 11 9 6 5 6 6 5 6 7 9 13 10 12 17 16 19 17 9 11 13 8 5 7 9 4 6 7
16 15 14 14 13 11 10 10 8 6 5 6 7 6 7 9 9 16 17 16 17 15 7 6 6 8 6 10 5 7 3 5
16 16 12 11 14 11 11 10 10 7 5 5 4 6 4 8 10 14 18 17 15 11 9 8 6 4 3 5 6 3 3 5
17 17 15 13 14 12 11 11 10 9 10 6 6 7 6 4 9 10 11 18 14 14 14 9 10 10 9 6 6 7 5 2
17 15 15 15 12 12 12 12 11 9 12 9 12 7 9 7 7 9 10 14 8 9 11 11 11 12 10 5 5 4 4 5
20 19 18 15 14 13 12 13 13 11 10 12 10 9 9 9 8 11 8 7 11 12 13 9 7 5 6 7 6 6 3 4
18 16 17 15 14 14 13 14 13 13 12 13 14 14 11 10 11 10 7 7 5 7 9 8 7 6 7 7 6 7 5 4
18 19 17 16 17 16 14 15 14 14 13 14 14 14 14 15 14 11 11 7 3 6 6 8 7 8 5 8 9 8 7 5
20 20 18 18 18 16 15 16 16 15 15 14 14 15 10 10 13 10 10 9 8 7 7 8 8 7 8 5 5 6 8 7
20 18 17 18 17 17 16 15 17 15 15 13 12 11 14 12 14 12 9 8 7 7 6 8 8 8 7 7 7 8 9 10
17 17 16 16 17 15 15 15 15 13 13 13 12 12 12 10 13 16 15 13 11 10 9 10 10 10 10 10 7 7 10 8
16 16 16 17 17 16 16 15 15 14 13 12 13 13 13 13 12 14 15 15 15 15 16 14 15 14 14 13 13 12 13 13
12 16 15 15 16 16 16 15 16 15 14 14 14 13 14 14 13 14 14 14 16 15 15 17 16 16 16 17 18 16 16 17
9 12 13 13 14 15 15 15 14 12 16 15 14 15 17 16 15 15 15 16 14 16 17 17 18 18 18 18 17 17 18 18
9 7 6 14 14 15 15 15 15 13 16 16 16 16 16 17 16 16 16 14 17 16 16 16 17 18 19 19 19 19 20 18
17 14 13 14 3 7 14 15 15 16 15 17 17 16 15 15 17 16 15 15 16 17 17 17 18 17 15 20 20 20 19 19
16 17 17 16 14 10 10 6 11 15 15 15 13 15 17 17 16 16 17 17 17 16 17 18 18 15 19 19 19 17 18 19
15 15 15 14 14 11 10 8 9 5 12 13 13 13 15 16 17 18 18 17 16 18 18 16 17 18 17 18 20 17 16 18
14 13 15 15 14 16 13 13 13 13 14 11 7 7 11 12 15 17 17 15 17 17 17 18 16 15 14 17 18 16 18 18
Wind_Direction
151 142 138 125 130 138 146 147 129 121 103 121 116 131 150 143 151 156 149 166 165 167 176 173 170 176 168 167 166 150 162 165
146 131 135 123 133 147 154 145 153 134 128 130 134 142 146 145 155 163 171 173 171 174 180 151 141 162 174 166 156 155 148 154
140 136 140 138 149 157 156 150 160 154 154 141 132 137 140 155 168 169 175 178 184 179 170 162 155 133 133 196 146 135 142 152
152 148 150 144 150 165 163 158 169 160 153 143 130 143 136 152 166 167 182 184 199 185 170 164 164 165 192 191 150 145 149 152
155 151 155 156 156 166 164 163 170 166 159 157 159 162 161 175 163 172 182 195 195 166 157 158 167 175 177 168 155 155 142 156
162 165 159 158 155 164 171 166 169 175 165 166 162 157 173 172 174 175 189 193 198 188 175 165 165 160 162 157 159 150 149 146
158 157 152 154 157 162 166 170 173 178 170 167 171 171 171 172 183 185 189 197 193 191 169 172 177 171 167 175 169 172 156 165
153 155 160 157 164 166 170 171 175 180 174 176 177 177 177 179 182 187 183 189 176 184 164 174 175 186 181 179 179 184 155 151
162 162 160 160 166 171 178 178 178 179 180 183 186 182 182 184 188 190 193 195 195 193 182 169 175 173 198 178 174 172 166 166
163 161 160 161 164 173 178 186 187 179 184 182 186 178 181 187 188 194 200 199 200 198 190 184 183 187 189 188 185 180 183 186
159 163 162 163 164 168 176 179 187 184 184 188 190 187 188 193 188 195 198 201 197 194 192 197 201 205 201 199 197 192 192 198
161 167 165 160 164 167 175 178 183 185 187 188 191 196 198 205 194 194 199 204 202 195 196 195 199 205 208 210 214 206 209 213
161 161 159 160 164 167 175 179 186 189 188 189 197 197 201 203 200 197 198 203 205 200 200 206 205 206 207 209 214 214 214 218
132 145 158 162 170 173 176 181 184 177 186 190 196 203 209 211 209 207 206 208 203 207 207 208 211 214 217 217 217 218 222 221
56 62 172 170 173 173 180 185 186 185 181 192 197 201 205 213 216 217 211 207 210 207 209 210 212 216 221 223 221 222 224 227
47 48 42 34 346 191 183 185 186 190 192 189 199 199 198 203 209 214 215 213 215 218 219 220 221 220 219 219 221 223 226 229
40 46 45 40 33 21 16 311 209 190 200 206 192 189 195 200 203 208 213 218 220 219 221 222 224 226 225 216 221 226 228 229
45 44 43 30 21 12 11 354 14 289 224 208 205 194 195 196 198 204 212 214 214 221 227 225 227 230 219 216 213 227 231 233
54 41 34 29 17 17 23 33 27 28 31 21 350 314 232 204 198 208 211 209 213 218 221 224 228 235 212 216 210 223 232 235